SCOUT A R/B, 2180

Orbit data source: Space-Track

SCOUT A R/B, 2180 is space debris in LEO originally from a launch on Thu, 19 May 1966 UTC launched from the Air Force Western Test Range (AFWTR). Debris objects in space refer to the collection of defunct objects orbiting the Earth. Examples of debris include non-operational satellites, rocket bodies, and fragments generated from explosions, collisions, or faulty payload assembly.

Loading next visibility...
SCOUT A R/B details
Identifier
2180, 1966-041B
Orbit
LEO
Last TLE update11 hours ago
Origin
Flag of USNASA LaRC (US)
ManufacturerABL
MissionSpacecraft
Bus & MotorALTAIR, Unknown motor
Mass33 kg wet, 33 kg dry
Launch date (UTC)
1966-05-19 (59 years ago)
Launch vehicleUnknown
Launch site
Air Force Western Test Range (AFWTR)
Object type
Payload
Rocket body
Debris
Shape & HBRCyl, 1.5 m
Radar Cross Section0.687 m², Medium (>0.1 m² and < 1m²)

Expand to show TLE details & history

TLE from 11 hours ago
0 SCOUT A R/B
1  2180U 66041B   24356.18484075  .00000362  00000-0  23066-3 0  9996
2  2180  90.2217  69.3115 0076972 231.7866 127.6367 14.00823093987706
Epoch: 2024-12-21T04:26Z
Definitive object data (Epoch: 2024-12-21T04:26:10.24Z)
Latitude-0.00003°
Longitude-87.4708°
Altitude928.416 km
Speed7.37 km/s
True Right ascension04h 37m 14s
True Declination0° 00' 00"
Sunlit
Object was in full shadow at TLE epoch
Visualization TLE readout
Latitude77.08599°
Longitude-88.42191°
Altitude954.05 km
Speed7.356 km/s
Apparent Right ascension02h 43m 29s
Apparent Declination25° 52' 19"
Sunlit
Object is in full shadow
Visualization observer readout
Local Sidereal Time14:07:51
Azimuth351.25° N
Elevation-23.69°
Doppler factor1
Orbital elements
Apogee altitude943.851 km
Perigee altitude831.994 km
Semi-major axis7,266.059 km
Eccentricity0.0076972
Inclination90.2217°
RAAN69.3115°
Arg. of periapsis231.7866°
True anomaly128.33108°
Mean anomaly127.6367°
Eccentric anomaly127.9843°
Mean motion3.50425 °/min
BSTAR0.00023066
Orbital period102.73 mins
Loading maneuver chart data...
Loading historical data...
Loading historical data...
Loading historical data...
Loading historical data...
Loading historical data...
Loading historical data...
Loading historical data...

SCOUT A R/B Visibility forecast

Observer location: undefined°, undefined

Span
Click to sort rows by Start time (UTC) header in descending order
Start Az.
Max El. time (UTC)
Max El. Az.
Max El.
End time (UTC)
End Az.
10 mins2024-12-21 17:01:37.601Z14.845° NNE2024-12-21 17:06:37.601Z87.234° E37.761°2024-12-21 17:11:37.601Z162.395° S
6 mins2024-12-21 18:46:37.601Z314.665° NW2024-12-21 18:48:37.601Z288.53° WNW19.691°2024-12-21 18:52:37.601Z241.466° WSW
8 mins2024-12-22 04:34:37.601Z127.886° SE2024-12-22 04:38:37.601Z68.964° E27.843°2024-12-22 04:42:37.601Z21.384° NNE
9 mins2024-12-22 06:16:37.601Z217.287° SW2024-12-22 06:20:37.601Z274.104° WNW30.182°2024-12-22 06:25:37.601Z337.424° NNW
|